Regional Weather Roundup
Issued by NWS

Home | Current Version | Previous Version | Graphics & Text | Print | Product List | Glossary On
Versions: 1 2 3 4 5 6 7 8 9 10 11 12 13 14 15 16 17 18 19 20 21 22 23 24 25 26 27 28 29 30 31 32 33 34 35 36 37 38 39 40 41 42 43 44 45 46 47 48 49 50
000
ASUS43 KLOT 191310
RWRIL

ILLINOIS REGIONAL WEATHER ROUNDUP
NATIONAL WEATHER SERVICE CHICAGO/ROMEOVILLE IL
700 AM CST FRI DEC 19 2014

NOTE: "FAIR" INDICATES FEW OR NO CLOUDS BELOW 12,000 FEET WITH NO
SIGNIFICANT WEATHER AND/OR OBSTRUCTIONS TO VISIBILITY.

* THESE STATIONS ARE NOT UNDER NWS QUALITY CONTROL. THEY ALSO MAY NOT
  REPORT WEATHER SUCH AS PRECIPITATION OR FOG.

ILZ001-002-007-009-015-016-024-191400-
NORTHWEST ILLINOIS

CITY           SKY/WX    TMP DP  RH WIND       PRES   REMARKS
MOLINE         CLEAR     16  12  84 CALM      30.32R
STERLING*      CLOUDY    27  19  74 N3        30.30S
SAVANNA*       CLOUDY    24  19  80 NE5       30.30S WCI  18
$$

ILZ003-004-008-010-011-017-018-191400-
NORTH CENTRAL ILLINOIS

CITY           SKY/WX    TMP DP  RH WIND       PRES   REMARKS
ROCKFORD       CLOUDY    27  20  75 NW5       30.31R WCI  22
FREEPORT*      CLOUDY    25  20  83 CALM      30.31S
ROCHELLE*      CLEAR     24  21  89 N8        30.30R WCI  15
DE KALB*       CLOUDY    25  20  83 N5        30.29R WCI  19
PERU*          CLEAR     18  16  91 W5        30.31R WCI  11
$$

ILZ005-006-012>014-019>023-191400-
NORTHEAST ILLINOIS

CITY           SKY/WX    TMP DP  RH WIND       PRES   REMARKS
CHICAGO-OHARE  CLOUDY    28  22  78 N8        30.29R WCI  20
CHICAGO-MIDWAY CLOUDY    31  24  75 N6        30.29R WCI  25
AURORA         CLOUDY    25  20  81 CALM      30.29R
LANSING*       CLOUDY    29  24  81 CALM      30.29R
JOLIET*        CLOUDY    26  21  80 CALM      30.30R
WAUKEGAN       CLOUDY    26  21  81 W5        30.29R WCI  20
DUPAGE AIRPORT CLOUDY    28  22  78 N3        30.28R
KANKAKEE*      CLOUDY    26  22  85 W5        30.30R WCI  20
WHEELING       CLOUDY    28  22  78 N7        30.31R WCI  21
MORRIS*        CLEAR     17  15  95 NW5       30.29S WCI  10
ROMEOVILLE*    CLOUDY    27  22  82 NW5       30.30R WCI  21
NORTHERLY ISL    N/A     30  22  72 MISG        N/A
$$

LMZ740>746-191400-
SOUTHERN LAKE MICHIGAN

STATION/POSITION SKY/WX   TEMP    WIND        PRES    VSBY  WAVE
                          AIR SEA DIR/SP/G                  HT/PER
                          (F)     (DEG/KT/KT) (MB)    (MI)  (FT/S)
WAUKEGAN HARBOR            27     310/  7/ 11   N/A
HARRISON CRIB              30     320/  7/  9   N/A
BURNHAM HARBOR             30      10/  7/  8   N/A
CALUMET HARBOR             30     330/  6/  7 1024.2R
$$

ILZ025>027-034>036-040-047-049-050-058-095>099-191400-
WEST-CENTRAL ILLINOIS

CITY           SKY/WX    TMP DP  RH WIND       PRES   REMARKS
QUINCY         CLOUDY    28  23  81 NE5       30.29R WCI  23
GALESBURG*     CLEAR     19  18  96 CALM      30.31S
MACOMB*        CLOUDY    26  23  89 NE7       30.33R WCI  18
JACKSONVILLE*  CLOUDY    30  26  84 CALM      30.30S
PITTSFIELD*    CLOUDY    29  27  89 NE3       30.30S
$$

ILZ028>032-037-038-041>044-048-051>054-059>061-191400-
CENTRAL ILLINOIS

CITY           SKY/WX    TMP DP  RH WIND       PRES   REMARKS
PONTIAC        CLEAR     17  14  91 CALM      30.32R
BLOOMINGTON    CLEAR     19  17  92 N5        30.30R WCI  12
DECATUR        CLEAR     19  16  88 CALM      30.30R FOG
PEORIA         CLEAR     19  14  81 CALM      30.32R
LACON*         CLEAR     14  12  91 CALM      30.31S FOG
LINCOLN*       CLEAR     19  17  93 CALM      30.33R FOG
SPRINGFIELD    CLEAR     23  20  88 NE6       30.31R WCI  16
TAYLORVILLE    PTCLDY    27  23  86 CALM      30.31R
$$

ILZ033-039-045-046-055>057-062-063-191400-
EAST-CENTRAL ILLINOIS

CITY           SKY/WX    TMP DP  RH WIND       PRES   REMARKS
CHAMPAIGN      CLEAR     18  15  88 N5        30.29R WCI  11
DANVILLE*      CLEAR     17  15  93 CALM      30.26S
RANTOUL*       CLEAR     19  16  88 NW5       30.30R WCI  12
MATTOON        CLEAR     20  17  88 CALM      30.28S
PARIS*         FAIR      20  19  96 CALM      30.30S FOG
$$

ILZ079-100>102-191400-
SOUTHWEST ILLINOIS

CITY           SKY/WX    TMP DP  RH WIND       PRES   REMARKS
ALTON          PTCLDY    28  27  93 CALM      30.31R
BELLEVILLE     CLEAR     26  25  99 NE3       30.30R FOG
CAHOKIA*       CLOUDY    30  26  85 E5        30.31R WCI  25
SPARTA*        CLEAR     28  27  93 CALM      30.31S
$$

ILZ064>066-069>071-074>076-080>082-084>086-088>090-092>094-191400-
SOUTH-CENTRAL ILLINOIS

CITY           SKY/WX    TMP DP  RH WIND       PRES   REMARKS
CARBONDALE     CLOUDY    32  26  78 NE6       30.30S WCI  26
CAIRO*         CLOUDY    35  30  81 NE5       30.30R WCI  31
EFFINGHAM*     CLEAR     23  20  89 CALM      30.33R FOG
MARION         CLOUDY    32  28  86 N6        30.31F WCI  26
MT. VERNON     CLOUDY    28  21  74 NE5       30.32R WCI  23
CENTRALIA*     CLOUDY    29  25  84 E3        30.31R FOG
SALEM*         PTCLDY    29  26  86 CALM      30.32R FOG
METROPOLIS*    CLOUDY    32  30  92 NE6       30.29R FOG     WCI  27
$$

ILZ067-068-072-073-078-083-087-091-191400-
SOUTHEAST ILLINOIS

CITY           SKY/WX    TMP DP  RH WIND       PRES   REMARKS
LAWRENCEVILLE  CLEAR     25  21  85 CALM      30.32R
FLORA*         CLEAR     26  24  92 CALM      30.33R FOG
FAIRFIELD*     CLEAR     27  25  92 CALM      30.32R FOG
HARRISBURG*    CLOUDY    31  27  84 NE3       30.32S
ROBINSON*      CLEAR     25  22  90 CALM      30.33R
CARMI*         CLOUDY    32  29  89 N7        30.32R WCI  26
$$

ABBREVIATIONS USED IN REMARKS
   TC - TEMPERATURE IN CELSIUS
  WCI - WIND CHILL INDEX
   HX - HEAT INDEX
  VSB - VISIBILITY
$$




USA.gov is the U.S. government's official web portal to all federal, state and local government web resources and services.